Wind_Speed
4 4 3 4 5 7 9 10 11 11 10 10 9 9 9 9 9 8 8 7 7 8 7 7 7 6 6 6 6 6 6 6 7 7 7 7 7 6 6 6 7 7 7
3 3 3 3 5 7 8 9 10 10 10 9 9 8 8 8 8 8 8 7 7 7 7 7 6 6 5 5 5 5 6 6 6 6 6 6 6 6 6 7 7 7 7
2 1 2 2 4 6 8 8 9 9 9 9 8 8 8 8 8 8 8 8 8 8 7 7 6 6 5 5 5 5 5 5 6 6 6 6 6 6 6 6 6 6 6
1 1 1 2 3 5 6 7 8 8 9 8 8 8 7 7 7 8 8 8 8 7 7 7 6 6 5 5 5 4 5 5 5 5 6 5 5 5 5 5 5 5 5
0 1 2 2 2 3 5 6 7 7 8 8 7 7 7 7 6 6 7 7 7 6 6 6 5 5 5 4 4 4 4 4 5 5 4 4 4 5 5 5 5 5 5
0 1 2 3 3 3 4 5 6 6 7 7 7 6 6 6 6 6 6 6 6 6 6 6 5 5 4 4 4 4 4 4 3 3 3 3 4 4 4 4 5 5 4
1 1 2 3 2 3 4 4 5 6 6 6 5 5 5 5 5 6 6 5 5 5 5 5 5 4 4 4 3 3 3 3 3 3 3 3 3 3 3 3 4 4 4
2 2 3 3 2 3 3 4 5 5 5 5 4 4 4 4 4 5 5 4 5 5 5 5 4 4 4 3 3 3 2 2 2 2 2 2 2 2 2 2 2 3 3
2 3 4 3 3 3 3 4 5 5 4 4 3 3 3 3 3 3 3 4 4 4 4 4 4 4 3 3 2 2 2 2 2 2 1 2 2 2 2 2 2 2 2
3 3 3 4 4 4 4 4 4 4 4 3 3 2 2 2 2 2 3 3 3 3 4 4 4 3 3 2 2 1 1 1 1 2 1 1 2 2 2 2 2 2 2
3 3 3 4 4 4 5 5 5 5 4 3 3 2 1 1 0 1 2 3 3 3 3 3 3 3 2 2 1 1 1 1 1 2 2 1 1 2 2 3 3 2 2
3 4 4 4 4 5 5 5 5 5 5 4 4 3 2 2 1 1 1 2 2 2 3 2 2 2 2 2 1 1 1 1 0 0 0 1 1 2 2 3 3 2 2
4 4 5 5 5 6 6 6 6 5 5 5 5 4 3 3 2 2 2 2 3 3 3 2 2 2 1 1 1 1 1 1 1 1 1 1 2 2 2 2 2 3 3
5 6 5 6 7 7 7 7 7 7 5 5 5 5 4 4 3 3 3 3 3 3 2 1 1 1 1 1 1 1 1 1 1 1 1 2 2 3 3 3 3 3 3
7 6 6 7 8 8 8 8 8 8 7 6 6 6 5 4 4 4 4 4 3 2 2 1 1 2 1 1 1 1 1 2 2 1 1 2 2 3 3 3 3 3 3
7 7 7 8 9 9 10 9 9 9 9 8 7 7 6 5 5 4 4 4 4 3 2 2 1 2 2 2 2 1 2 2 2 2 2 2 3 3 4 4 3 4 3
8 8 8 8 9 10 11 11 11 10 10 10 9 8 8 7 6 5 5 4 4 3 2 2 2 2 2 2 2 2 2 2 2 2 2 2 3 3 4 4 4 4 3
10 10 9 9 10 11 12 12 12 11 12 12 11 10 9 9 8 6 6 5 4 4 3 2 2 2 2 2 2 2 1 1 2 2 2 2 2 2 3 3 3 3 3
11 11 10 10 11 13 13 13 12 12 13 12 12 11 10 10 9 7 7 6 5 4 4 3 2 2 2 2 1 1 1 1 1 1 2 2 2 2 1 2 2 2 2
13 12 12 12 13 13 14 14 13 12 13 13 13 12 12 11 9 8 8 7 6 5 4 3 3 3 2 2 1 1 1 1 1 1 1 1 2 1 1 1 1 1 1
13 13 11 12 12 13 13 14 14 13 14 14 14 13 12 12 11 9 9 8 7 6 5 4 3 3 3 3 2 2 2 1 1 1 1 1 1 1 1 1 1 1 1
13 12 12 11 12 13 13 14 15 15 15 15 15 14 13 13 12 11 10 10 9 7 6 5 4 4 4 3 3 2 2 2 1 1 1 1 1 1 1 1 1 1 2
13 13 12 12 13 13 14 14 16 15 15 15 15 14 14 14 13 12 12 12 10 9 7 6 6 5 5 4 4 3 3 3 2 1 1 1 1 1 1 1 1 1 2
11 12 13 13 14 14 14 14 15 15 15 15 16 15 15 15 14 14 13 13 12 11 9 7 7 7 6 5 5 4 4 3 3 2 1 1 1 2 1 2 2 2 2
12 11 12 13 14 14 14 15 16 16 16 17 17 17 16 16 15 15 15 14 13 12 10 9 8 8 7 6 5 5 5 4 4 3 2 2 2 2 2 2 2 2 2
13 13 13 15 15 15 16 16 17 17 17 17 17 18 17 17 17 16 16 15 14 13 12 11 10 9 9 8 7 6 6 5 5 4 4 4 3 3 3 3 3 3 3
Wind_Direction
62 70 82 91 94 98 97 96 94 92 90 86 83 78 74 70 70 71 71 70 69 69 72 74 81 89 89 91 85 85 88 88 95 96 98 97 93 92 94 97 99 97 95
56 73 84 88 93 98 98 97 96 94 92 87 83 79 75 71 72 73 73 73 71 71 70 72 76 81 85 85 85 91 88 90 97 97 95 94 91 89 93 99 99 100 100
52 88 108 98 100 99 100 100 99 97 93 89 86 82 78 74 73 72 72 70 70 70 67 66 68 69 81 80 83 91 90 93 97 99 97 92 89 90 97 101 100 101 100
53 142 156 130 112 101 105 106 105 100 97 93 89 84 80 77 74 72 70 68 65 63 63 62 63 65 70 74 77 83 93 98 102 104 100 97 96 96 100 99 101 105 101
15 204 179 151 128 120 114 112 110 105 100 96 92 86 80 77 73 70 66 65 61 57 55 58 62 65 69 70 70 75 100 103 98 102 106 106 103 102 105 104 105 104 103
298 205 186 168 151 138 124 122 120 113 106 101 96 87 79 74 71 67 62 61 61 57 52 51 58 64 73 73 77 78 87 90 97 104 107 109 106 106 111 113 107 107 109
274 215 186 182 165 151 140 135 132 124 118 110 102 92 83 75 68 65 61 60 59 57 54 50 52 62 72 75 77 81 80 87 90 93 97 107 109 112 117 117 119 121 117
271 225 202 193 187 170 152 143 141 136 130 121 109 98 88 76 64 59 55 55 50 47 49 46 45 57 62 67 66 73 73 81 78 80 94 112 114 116 123 128 130 131 127
270 236 216 206 199 183 169 155 154 150 145 135 121 107 97 83 65 52 44 41 38 37 38 37 39 44 47 54 62 66 65 68 87 95 114 122 126 123 132 153 153 146 142
282 255 233 217 208 198 187 177 169 167 163 159 147 128 111 96 71 40 26 23 24 27 28 24 21 25 31 41 46 59 82 90 105 103 106 143 162 149 151 171 169 164 159
284 268 250 228 213 205 200 194 191 190 189 192 184 171 166 156 98 15 2 4 8 14 18 17 11 13 26 38 46 57 66 85 114 95 98 114 148 154 175 182 179 174 185
281 274 261 242 226 215 207 203 203 204 207 208 206 197 206 215 222 295 339 340 345 352 359 4 7 15 23 37 50 36 27 5 192 32 111 134 170 181 183 191 197 202 221
290 280 265 248 234 224 216 216 212 211 213 215 214 214 220 223 232 254 286 312 318 321 328 337 352 2 6 23 26 15 354 330 311 274 204 186 189 196 205 217 226 238 242
290 281 269 252 237 230 222 221 220 219 222 221 219 221 214 219 233 256 266 286 296 304 314 321 318 321 331 1 347 328 326 319 324 253 199 194 201 208 220 239 246 252 250
293 285 273 256 241 235 227 224 225 225 224 219 219 224 222 224 238 255 256 268 281 288 299 310 290 285 285 292 301 295 299 310 299 273 239 226 213 223 238 244 253 270 272
293 286 275 259 246 240 233 228 228 227 225 220 222 225 225 227 237 243 254 262 264 270 272 271 264 274 278 277 282 274 287 290 285 263 249 246 233 237 246 255 263 276 282
288 282 274 258 247 239 234 231 228 229 226 224 225 227 228 230 238 238 247 248 253 256 268 254 246 267 278 279 287 282 271 268 261 248 244 251 250 249 250 257 266 273 275
281 275 266 256 244 238 234 233 233 229 226 225 227 228 230 232 235 235 236 240 241 248 259 254 241 256 272 289 289 281 257 244 241 241 238 250 261 261 261 265 269 276 278
279 275 260 252 240 235 233 234 233 230 226 225 226 227 230 230 230 232 234 233 233 242 250 255 244 242 251 269 269 246 219 221 217 231 234 240 252 253 266 288 292 292 289
275 272 261 254 239 234 231 232 231 228 227 225 225 227 228 224 225 231 228 228 234 240 240 247 252 247 241 224 214 193 187 171 164 200 211 214 220 238 260 292 309 322 298
275 265 256 249 236 232 231 228 228 226 226 223 222 223 222 221 222 226 226 226 231 235 233 232 243 239 226 204 193 185 170 168 158 164 183 199 215 238 254 293 305 321 333
272 252 246 237 228 228 227 226 225 225 224 223 219 220 221 220 222 225 225 224 227 230 229 229 232 227 211 203 205 189 174 173 165 172 180 222 221 228 254 292 301 308 323
269 245 239 232 229 226 225 225 224 221 221 222 221 222 221 221 224 225 224 224 226 228 228 233 231 219 213 212 205 199 198 191 192 202 201 218 220 219 257 284 315 336 327
266 245 239 229 228 228 225 222 220 218 218 221 221 221 221 220 222 224 225 224 227 228 229 234 225 219 217 217 211 207 209 204 202 211 223 247 240 238 253 277 298 321 304
264 250 241 228 228 227 223 219 215 217 220 222 221 218 220 222 224 224 224 225 227 227 228 227 225 220 217 219 220 220 220 214 214 226 247 259 256 254 258 269 281 299 299
261 252 245 236 230 228 223 219 217 220 222 223 222 220 222 224 226 226 227 228 227 227 228 228 223 219 220 223 223 224 226 226 231 242 257 260 256 256 260 259 270 279 286
Height
5871 5871 5872 5873 5873 5873 5873 5873 5875 5876 5877 5878 5879 5880 5880 5881 5881 5882 5883 5883 5883 5884 5884 5884 5884 5884 5885 5885 5885 5886 5886 5886 5886 5887 5887 5887 5888 5888 5888 5889 5889 5889 5890
5872 5872 5873 5873 5873 5873 5874 5874 5876 5877 5878 5879 5880 5881 5882 5882 5883 5883 5884 5884 5884 5885 5885 5885 5885 5885 5886 5886 5886 5887 5887 5887 5888 5888 5888 5888 5889 5889 5889 5890 5890 5890 5891
5872 5872 5873 5873 5874 5874 5874 5875 5876 5878 5879 5880 5881 5882 5883 5884 5884 5885 5885 5885 5886 5886 5886 5886 5886 5886 5886 5887 5887 5887 5888 5888 5889 5889 5889 5889 5890 5890 5890 5891 5891 5891 5892
5872 5872 5873 5873 5874 5874 5875 5876 5877 5878 5879 5881 5882 5883 5884 5885 5885 5886 5886 5886 5887 5887 5887 5887 5887 5887 5887 5887 5888 5888 5889 5889 5889 5890 5890 5891 5891 5891 5891 5892 5892 5892 5892
5873 5873 5873 5874 5874 5875 5875 5876 5877 5879 5880 5881 5883 5884 5885 5885 5886 5887 5887 5887 5887 5887 5888 5888 5888 5888 5888 5888 5889 5889 5889 5890 5890 5891 5891 5891 5892 5892 5892 5892 5893 5893 5893
5872 5873 5873 5874 5874 5875 5876 5877 5878 5879 5881 5882 5883 5884 5885 5886 5887 5887 5888 5888 5888 5888 5888 5888 5889 5889 5889 5889 5890 5890 5890 5890 5891 5891 5892 5892 5892 5893 5893 5893 5893 5893 5894
5872 5873 5873 5874 5874 5875 5876 5877 5878 5879 5881 5882 5883 5885 5886 5887 5888 5888 5888 5889 5889 5889 5889 5889 5889 5889 5890 5890 5890 5890 5891 5891 5891 5892 5892 5892 5893 5893 5893 5894 5894 5894 5894
5872 5873 5873 5873 5874 5875 5876 5877 5878 5879 5881 5882 5883 5885 5886 5887 5888 5888 5889 5889 5889 5890 5890 5889 5890 5890 5890 5890 5890 5891 5891 5891 5891 5892 5892 5893 5893 5893 5894 5894 5894 5895 5895
5872 5872 5873 5873 5874 5875 5876 5877 5878 5879 5881 5882 5884 5885 5886 5887 5888 5889 5889 5890 5890 5890 5890 5890 5890 5890 5890 5890 5891 5891 5891 5891 5891 5892 5892 5893 5893 5893 5894 5894 5894 5895 5895
5871 5872 5872 5873 5874 5875 5876 5877 5878 5880 5881 5882 5883 5885 5886 5887 5888 5888 5889 5890 5890 5890 5890 5890 5890 5890 5890 5890 5891 5891 5891 5891 5892 5892 5892 5893 5893 5893 5894 5894 5894 5895 5895
5871 5871 5872 5872 5873 5874 5875 5877 5878 5879 5880 5882 5883 5884 5885 5886 5887 5888 5889 5889 5890 5890 5890 5890 5890 5890 5890 5890 5891 5891 5891 5891 5892 5892 5892 5893 5893 5893 5893 5894 5894 5894 5895
5870 5870 5871 5872 5872 5873 5875 5876 5877 5879 5880 5881 5882 5884 5885 5886 5887 5887 5888 5889 5889 5890 5890 5890 5890 5890 5890 5890 5891 5891 5891 5891 5891 5892 5892 5892 5892 5893 5893 5893 5894 5894 5894
5869 5869 5870 5871 5872 5873 5874 5875 5877 5878 5879 5880 5882 5883 5884 5885 5886 5886 5887 5888 5889 5889 5889 5890 5890 5890 5890 5890 5891 5891 5891 5891 5891 5891 5892 5892 5892 5893 5893 5893 5893 5894 5894
5868 5868 5868 5869 5870 5872 5873 5874 5875 5877 5878 5879 5880 5882 5883 5884 5885 5886 5886 5887 5888 5889 5889 5889 5889 5890 5890 5890 5891 5891 5891 5891 5891 5891 5891 5892 5892 5892 5893 5893 5893 5893 5893
5866 5866 5867 5868 5869 5870 5871 5873 5874 5875 5877 5878 5879 5881 5882 5883 5884 5885 5886 5886 5887 5888 5889 5889 5889 5889 5890 5890 5890 5890 5891 5891 5891 5891 5891 5891 5892 5892 5892 5892 5892 5892 5892
5864 5864 5865 5866 5867 5868 5870 5871 5872 5874 5875 5877 5878 5880 5881 5882 5883 5884 5885 5886 5887 5887 5888 5889 5889 5889 5889 5890 5890 5890 5890 5890 5890 5891 5891 5891 5891 5892 5892 5892 5892 5892 5892
5862 5862 5862 5863 5865 5866 5868 5869 5870 5872 5874 5875 5877 5878 5879 5881 5882 5883 5884 5885 5886 5887 5887 5888 5888 5889 5889 5889 5890 5890 5890 5890 5890 5890 5891 5891 5891 5891 5891 5891 5891 5891 5891
5859 5859 5860 5861 5862 5864 5865 5867 5868 5870 5872 5873 5875 5876 5878 5879 5881 5882 5883 5884 5885 5886 5887 5887 5888 5888 5889 5889 5889 5889 5889 5889 5890 5890 5890 5891 5891 5891 5891 5891 5890 5890 5890
5857 5856 5856 5857 5859 5860 5863 5864 5866 5868 5870 5871 5873 5875 5876 5878 5879 5881 5882 5883 5884 5885 5886 5887 5887 5888 5888 5889 5889 5889 5889 5889 5889 5890 5890 5890 5890 5891 5891 5890 5890 5890 5890
5854 5853 5853 5854 5855 5857 5859 5862 5864 5866 5868 5869 5871 5873 5874 5876 5878 5879 5881 5882 5883 5884 5885 5886 5887 5887 5888 5888 5888 5889 5889 5889 5889 5890 5890 5890 5890 5890 5891 5890 5890 5890 5890
5849 5849 5850 5851 5852 5854 5856 5859 5861 5864 5865 5867 5869 5871 5873 5875 5876 5878 5879 5881 5882 5884 5884 5885 5886 5887 5887 5888 5888 5889 5889 5889 5889 5890 5890 5890 5890 5890 5891 5890 5890 5890 5890
5845 5845 5847 5848 5850 5852 5853 5856 5858 5861 5863 5865 5867 5869 5871 5873 5875 5876 5878 5880 5881 5882 5883 5884 5885 5886 5887 5888 5888 5888 5889 5890 5890 5890 5890 5890 5890 5890 5890 5890 5890 5890 5890
5841 5842 5844 5845 5847 5849 5851 5853 5855 5857 5860 5863 5865 5867 5869 5871 5873 5875 5876 5878 5879 5881 5882 5883 5884 5885 5886 5887 5888 5888 5889 5889 5890 5890 5890 5890 5890 5890 5890 5890 5890 5890 5890
5839 5839 5841 5842 5844 5846 5848 5850 5852 5855 5858 5861 5862 5864 5867 5869 5871 5872 5874 5876 5878 5879 5881 5882 5883 5884 5885 5886 5887 5888 5888 5889 5889 5889 5890 5890 5890 5890 5890 5890 5890 5890 5890
5837 5838 5839 5840 5842 5844 5846 5848 5850 5853 5856 5858 5860 5862 5864 5866 5868 5870 5872 5874 5876 5877 5879 5880 5882 5883 5884 5885 5886 5887 5887 5888 5888 5889 5889 5890 5890 5890 5890 5890 5890 5890 5889
5834 5835 5836 5838 5840 5841 5844 5846 5848 5851 5853 5855 5857 5859 5862 5864 5866 5868 5869 5871 5873 5875 5876 5878 5880 5881 5883 5884 5885 5886 5887 5887 5888 5888 5888 5889 5889 5889 5889 5889 5889 5889 5889